Regional Weather Roundup
Issued by NWS

Home | Current Version | Previous Version | Text Only | Print | Product List | Glossary Off
Versions: 1 2 3 4 5 6 7 8 9 10 11 12 13 14 15 16 17 18 19 20 21 22 23 24 25 26 27 28 29 30 31 32 33 34 35 36 37 38 39 40 41 42 43 44 45 46 47 48 49 50

000
ASUS43 KLOT 041712
RWRIL

ILLINOIS REGIONAL WEATHER ROUNDUP
NATIONAL WEATHER SERVICE CHICAGO/ROMEOVILLE IL
1200 PM CDT SAT JUL 04 2015

NOTE: "FAIR" INDICATES FEW OR NO CLOUDS BELOW 12,000 FEET WITH NO
SIGNIFICANT WEATHER AND/OR OBSTRUCTIONS TO VISIBILITY.

* THESE STATIONS ARE NOT UNDER NWS QUALITY CONTROL. THEY ALSO MAY NOT
  REPORT WEATHER SUCH AS PRECIPITATION OR FOG.

ILZ001-002-007-009-015-016-024-041800-
NORTHWEST ILLINOIS

CITY           SKY/WX    TMP DP  RH WIND       PRES   REMARKS
MOLINE         SUNNY     78  58  49 VRB3      30.02S
STERLING*      SUNNY     79  61  53 SW6       30.03R HX  80
SAVANNA*       SUNNY     78  60  54 SW5       30.01S
$$

ILZ003-004-008-010-011-017-018-041800-
NORTH CENTRAL ILLINOIS

CITY           SKY/WX    TMP DP  RH WIND       PRES   REMARKS
ROCKFORD       MOSUNNY   78  60  53 CALM      30.03R
FREEPORT*      SUNNY     76  61  59 CALM      30.03F
ROCHELLE*      SUNNY     75  60  59 S7        30.03S
DE KALB*       SUNNY     73  58  58 CALM      30.04R
PERU*          SUNNY     76  54  46 SW6       30.03F
$$

ILZ005-006-012>014-019>023-041800-
NORTHEAST ILLINOIS

CITY           SKY/WX    TMP DP  RH WIND       PRES   REMARKS
CHICAGO-OHARE  SUNNY     76  54  46 S6        30.01R
CHICAGO-MIDWAY MOSUNNY   80  56  43 CALM      30.01R HX  80
AURORA         SUNNY     77  57  50 VRB3      30.03R
LANSING*       SUNNY     77  54  45 CALM      30.02S
JOLIET*        SUNNY     78  59  52 CALM      30.02S
WAUKEGAN       MOSUNNY   77  61  57 SE6       30.00S
DUPAGE AIRPORT SUNNY     77  56  48 S3        30.01S
KANKAKEE*      MOSUNNY   80  64  57 SW5       30.03S HX  81
WHEELING       SUNNY     78  57  48 SW5       30.02S
MORRIS*        SUNNY     76  58  53 W6        30.01S
ROMEOVILLE*    SUNNY     77  56  48 W5        30.02S
NORTHERLY ISL    N/A     70  60  70 E5          N/A
$$

LMZ740>746-041800-
SOUTHERN LAKE MICHIGAN

STATION/POSITION SKY/WX   TEMP    WIND        PRES    VSBY  WAVE
                          AIR SEA DIR/SP/G                  HT/PER
                          (F)     (DEG/KT/KT) (MB)    (MI)  (FT/S)
HARRISON CRIB              67     110/  7/  8   N/A
BURNHAM HARBOR             70      80/  4/  5   N/A
CALUMET HARBOR             70      50/  6/  7   N/A
BURNS HARBOR               69     350/  3/  3 1016.9S
MICHIGAN CITY              68     250/  4/  4   N/A
MICHIGAN CITY 6N           69 66  280/  2/  4   N/A           0
ST. JOSEPH                 65 65                N/A           0
$$

ILZ025>027-034>036-040-047-049-050-058-095>099-041800-
WEST-CENTRAL ILLINOIS

CITY           SKY/WX    TMP DP  RH WIND       PRES   REMARKS
QUINCY         MOSUNNY   78  60  53 VRB3      30.03S
GALESBURG*     MOSUNNY   77  59  54 CALM      30.04S
MACOMB*        PTSUNNY   76  62  61 SW5       30.05S
JACKSONVILLE*  PTSUNNY   78  66  67 S5        30.04R HX  80
PITTSFIELD*    MOSUNNY   78  63  60 CALM      30.04F
$$

ILZ028>032-037-038-041>044-048-051>054-059>061-041800-
CENTRAL ILLINOIS

CITY           SKY/WX    TMP DP  RH WIND       PRES   REMARKS
PONTIAC        SUNNY     77  62  60 S3        30.03F
BLOOMINGTON    MOSUNNY   76  60  57 VRB6      30.05S
DECATUR        MOSUNNY   78  59  51 VRB3      30.04S
PEORIA         MOSUNNY   79  60  52 SW5       30.03F HX  80
LACON*         SUNNY     76  56  51 CALM      30.02F
LINCOLN*       MOSUNNY   79  60  50 S7        30.03F HX  80
SPRINGFIELD    PTSUNNY   79  63  57 W3        30.04S HX  80
TAYLORVILLE    MOSUNNY   73  59  60 CALM      30.04S
$$

ILZ033-039-045-046-055>057-062-063-041800-
EAST-CENTRAL ILLINOIS

CITY           SKY/WX    TMP DP  RH WIND       PRES   REMARKS
CHAMPAIGN      MOSUNNY   77  59  53 CALM      30.04S
DANVILLE*      PTSUNNY   75  61  60 SE3       30.02R
RANTOUL*       SUNNY     78  61  54 CALM      30.04R HX  80
MATTOON        MOSUNNY   76  61  59 VRB3      30.03S
PARIS*         MOSUNNY   77  63  61 E3        30.05R
$$

ILZ079-100>102-041800-
SOUTHWEST ILLINOIS

CITY           SKY/WX    TMP DP  RH WIND       PRES   REMARKS
BELLEVILLE     MOSUNNY   79  66  64 NE5       30.02R HX  81
CAHOKIA*       SUNNY     81  62  52 E6        30.02S HX  82
SPARTA*        MOSUNNY   78  64  61 CALM      30.03S HX  80
$$

ILZ064>066-069>071-074>076-080>082-084>086-088>090-092>094-041800-
SOUTH-CENTRAL ILLINOIS

CITY           SKY/WX    TMP DP  RH WIND       PRES   REMARKS
CARBONDALE     MOSUNNY   78  64  61 CALM      30.02S HX  80
CAIRO*         CLOUDY    78  69  74 NE6       30.01S HX  80
EFFINGHAM*     CLOUDY    76  58  53 CALM      30.05S
MARION         MOSUNNY   79  68  69 N5        30.03S HX  81
MT. VERNON     MOSUNNY   77  64  65 N5        30.02F
CENTRALIA*     MOSUNNY   77  62  59 CALM      30.02F
SALEM*         MOSUNNY   79  64  59 CALM      30.03S HX  80
METROPOLIS*    CLOUDY    77  70  78 CALM      30.02R
$$

ILZ067-068-072-073-078-083-087-091-041800-
SOUTHEAST ILLINOIS

CITY           SKY/WX    TMP DP  RH WIND       PRES   REMARKS
LAWRENCEVILLE  MOSUNNY   79  66  64 N5        30.03S HX  81
FLORA*         SUNNY     76  64  64 CALM      30.03S
FAIRFIELD*     SUNNY     78  65  65 NE7       30.01F
HARRISBURG*    MOSUNNY   77  67  71 CALM      30.02F
ROBINSON*      MOSUNNY   78  63  59 CALM      30.04S HX  80
CARMI*         MOSUNNY   79  61  54 N5        30.01S HX  80
$$

ABBREVIATIONS USED IN REMARKS
   TC - TEMPERATURE IN CELSIUS
  WCI - WIND CHILL INDEX
   HX - HEAT INDEX
  VSB - VISIBILITY
$$



USA.gov is the U.S. government's official web portal to all federal, state and local government web resources and services.